Sheridan, NY

12:59 PM EDT on August 31, 2016 (GMT -0400)
Chautauqua County-Dunkirk

Weather History for KDKK - August, 2014

Change the Weather History Date:

Saturday, August 2, 2014

  Actual Average Record
Temperature  
Mean Temperature 70 °F -  
Max Temperature 79 °F 80 °F 93 °F (2006)
Min Temperature 62 °F 62 °F 50 °F (1929)
Cooling Degree Days 6    
Growing Degree Days 20 (Base 50)    
Moisture  
Dew Point 62 °F    
Average Humidity 79    
Maximum Humidity 93    
Minimum Humidity 50    
Precipitation  
Precipitation 0.21 in - - ()
Sea Level Pressure  
Sea Level Pressure 30.10 in    
Wind  
Wind Speed 9 mph (WSW)    
Max Wind Speed 21 mph    
Max Gust Speed 26 mph    
Visibility 9 miles    
Events Rain , Thunderstorm    
Averages and records for this station are not official NWS values.
T = Trace of Precipitation, MM = Missing Value Source: NWS Daily Summary

Daily Weather History Graph

Daily Weather History Graph

Search for Another Location

Airport or City:

Trip Planner

Search our weather history database for the weather conditions in past years. The results will help you decide how hot, cold, wet, or windy it might be!

Date:

Astronomy

Aug. 02, 2014 Rise Set
Actual Time 6:10 AM EDT 8:35 PM EDT
Civil Twilight 5:38 AM EDT 9:07 PM EDT
Nautical Twilight 4:59 AM EDT 9:46 PM EDT
Astronomical Twilight 4:14 AM EDT 10:30 PM EDT
Moon 12:39 PM EDT (8/2) 11:43 PM EDT (8/2)
Length of Visible Light 15h 28m
Length of Day
14h 25m
Waxing Crescent, 36% of the Moon is Illuminated
Aug 2
Waxing Crescent
Aug 3
First Quarter
Aug 10
Full
Aug 17
Last Quarter
Aug 25
New

Hourly Weather History & Observations

Time (EDT) Temp. Dew Point Humidity Pressure Visibility Wind Dir Wind Speed Gust Speed Precip Events Conditions
12:53 AM 70.0 °F 59.0 °F 68% 30.12 in 10.0 mi SSE 9.2 mph 21.9 mph N/A   Clear
1:53 AM 70.0 °F 57.0 °F 63% 30.10 in 10.0 mi South 4.6 mph - N/A   Mostly Cloudy
2:06 AM 69.1 °F 57.0 °F 65% 30.12 in 10.0 mi West 5.8 mph - 0.00 in Rain , Thunderstorm Light Rain
2:31 AM 68.0 °F 59.0 °F 73% 30.12 in 10.0 mi SSW 15.0 mph 21.9 mph 0.00 in Rain , Thunderstorm Light Thunderstorms and Rain
2:49 AM 66.2 °F 60.8 °F 83% 30.12 in 9.0 mi SSW 17.3 mph 25.3 mph 0.00 in Rain Light Rain
2:53 AM 66.0 °F 61.0 °F 84% 30.11 in 10.0 mi SW 15.0 mph 25.3 mph 0.00 in Rain Light Rain
4:53 AM 64.0 °F 59.0 °F 84% 30.10 in 10.0 mi SSE 10.4 mph - 0.04 in   Mostly Cloudy
5:53 AM 62.1 °F 57.9 °F 86% 30.09 in 10.0 mi SSE 8.1 mph - N/A   Clear
6:53 AM 62.1 °F 59.0 °F 90% 30.10 in 10.0 mi WNW 5.8 mph - N/A   Clear
7:53 AM 66.9 °F 61.0 °F 81% 30.12 in 10.0 mi WNW 5.8 mph - N/A   Clear
8:53 AM 72.0 °F 62.1 °F 71% 30.13 in 10.0 mi WNW 6.9 mph - N/A   Clear
9:53 AM 73.9 °F 64.9 °F 73% 30.13 in 10.0 mi NW 8.1 mph - N/A   Clear
10:53 AM 73.0 °F 63.0 °F 71% 30.13 in 10.0 mi North 9.2 mph - N/A   Clear
11:53 AM 75.0 °F 63.0 °F 66% 30.14 in 10.0 mi North 8.1 mph - N/A   Clear
12:53 PM 75.9 °F 61.0 °F 60% 30.12 in 10.0 mi North 9.2 mph - N/A   Clear
1:53 PM 77.0 °F 57.0 °F 50% 30.09 in 10.0 mi North 8.1 mph - N/A   Clear
2:53 PM 79.0 °F 63.0 °F 58% 30.07 in 10.0 mi NNE 10.4 mph - N/A   Clear
3:53 PM 75.0 °F 64.9 °F 71% 30.06 in 10.0 mi North 10.4 mph - N/A Thunderstorm Thunderstorm
4:53 PM 73.0 °F 64.0 °F 73% 30.07 in 9.0 mi South 6.9 mph - N/A Thunderstorm Thunderstorm
5:23 PM 70.0 °F 66.9 °F 90% 30.08 in 5.0 mi Variable 4.6 mph - 0.06 in Rain , Thunderstorm Light Rain
5:53 PM 70.0 °F 66.9 °F 90% 30.07 in 6.0 mi SSE 3.5 mph - 0.06 in   Scattered Clouds
6:18 PM 70.0 °F 66.0 °F 87% 30.08 in 7.0 mi SW 6.9 mph - N/A Thunderstorm Clear
6:51 PM 69.8 °F 64.4 °F 83% 30.10 in 9.0 mi SSW 12.7 mph 25.3 mph N/A Thunderstorm Thunderstorm
6:53 PM 69.1 °F 64.9 °F 87% 30.09 in 10.0 mi SW 11.5 mph 25.3 mph N/A Thunderstorm Thunderstorm
7:09 PM 68.0 °F 64.9 °F 90% 30.09 in 4.0 mi West 10.4 mph - 0.02 in Rain , Thunderstorm Heavy Thunderstorms and Rain
7:20 PM 66.9 °F 63.0 °F 87% 30.11 in 4.0 mi WNW 20.7 mph 26.5 mph 0.04 in Rain , Thunderstorm Light Thunderstorms and Rain
7:46 PM 64.9 °F 62.1 °F 90% 30.11 in 10.0 mi WNW 9.2 mph 23.0 mph 0.10 in Rain , Thunderstorm Light Thunderstorms and Rain
7:53 PM 66.0 °F 62.1 °F 87% 30.10 in 10.0 mi Calm Calm - 0.10 in Rain , Thunderstorm Light Rain
8:53 PM 64.9 °F 63.0 °F 93% 30.09 in 10.0 mi South 5.8 mph - 0.00 in Rain Light Rain
9:53 PM 64.9 °F 63.0 °F 93% 30.09 in 9.0 mi ESE 9.2 mph - 0.01 in   Mostly Cloudy
10:53 PM 64.9 °F 62.1 °F 90% 30.09 in 10.0 mi Calm Calm - N/A   Mostly Cloudy